Theta_e
309 311 310 315 316 314 312 310 309 313 317 318 319 321 323 329 329 327 327 329 329 330 334 337 341 344 347 350 351 349 352 354 353 351 349 350 351 357 357 359 363 362 361 358
307 307 312 315 314 313 312 310 310 313 317 318 317 317 320 326 328 329 329 329 330 332 335 338 339 339 344 347 349 351 350 352 352 352 353 354 355 358 359 364 361 360 359 360
303 307 309 310 310 310 311 311 309 308 313 317 314 315 316 325 329 330 330 332 333 333 333 336 339 338 340 344 347 349 352 352 353 354 355 358 360 358 356 356 355 356 359 358
303 306 306 307 308 311 309 311 310 309 308 305 313 306 316 317 323 328 329 329 332 335 337 339 340 339 339 342 347 349 352 353 354 356 355 357 361 359 361 354 354 357 358 357
302 303 304 304 306 310 309 311 308 309 310 309 310 308 313 317 318 323 329 331 332 336 337 338 340 341 341 342 345 348 351 353 356 357 359 356 357 359 357 357 356 355 357 358
304 305 307 308 309 311 311 309 310 310 310 305 308 308 310 314 318 322 326 331 333 334 336 337 341 343 343 343 345 347 349 352 355 359 358 359 358 359 356 354 354 353 352 350
301 302 305 307 304 307 308 306 301 302 302 303 308 307 312 318 319 321 323 328 332 335 335 336 336 339 344 343 344 346 349 348 351 352 359 360 360 359 357 355 351 349 344 343
298 296 302 306 305 305 305 306 302 297 299 303 307 305 310 318 320 322 324 328 332 333 335 336 337 339 343 344 345 345 347 349 351 351 354 361 361 357 354 354 348 344 343 346
298 298 303 305 307 308 306 304 309 303 303 303 307 310 315 318 320 321 322 325 331 333 334 335 337 340 343 345 346 347 348 350 353 352 354 358 360 358 353 351 349 346 350 349
303 298 302 304 308 308 309 312 304 307 299 297 303 306 308 317 319 321 322 324 327 334 334 335 337 341 344 346 347 349 350 351 354 354 353 358 360 358 355 350 348 349 351 353
303 302 302 303 304 304 306 306 307 308 307 300 299 303 318 319 321 320 322 327 328 331 334 334 337 342 347 349 349 349 350 351 353 354 357 359 359 356 353 348 348 350 353 353
304 302 299 302 304 304 306 307 309 302 302 305 305 304 317 319 322 322 323 328 330 333 335 335 336 340 346 350 352 352 351 351 353 357 359 358 355 351 349 345 348 351 351 351
303 301 298 300 302 304 303 305 307 306 307 305 301 303 319 320 323 324 325 329 335 335 336 337 337 342 347 353 356 354 352 349 348 352 352 351 346 345 344 346 349 351 352 350
308 300 301 298 301 305 305 306 307 308 305 305 306 308 315 318 320 323 326 330 334 338 338 340 343 346 352 354 349 343 342 343 343 341 343 342 343 343 343 348 351 351 349 343
306 304 301 302 301 302 304 305 307 307 309 306 309 309 315 319 319 321 325 330 335 337 337 342 345 350 351 346 344 339 338 337 338 341 340 338 340 345 348 350 349 344 339 334
310 308 306 306 305 301 302 306 308 308 309 309 310 311 319 320 321 323 326 329 333 337 337 342 348 350 345 345 341 340 336 333 336 334 341 344 341 344 347 343 337 334 330 327
311 311 309 304 306 303 301 305 308 308 311 309 306 311 320 320 323 325 327 330 332 336 338 339 343 350 349 346 340 339 334 335 336 336 338 341 345 343 341 336 330 327 326 324
312 311 310 304 306 298 307 311 308 306 308 312 313 316 320 322 323 327 329 331 334 335 337 343 346 349 348 347 343 343 342 337 336 338 338 344 345 341 339 334 329 325 324 322
313 310 307 304 303 306 309 312 311 311 310 317 316 319 323 324 323 325 334 334 335 336 340 345 349 350 346 343 343 341 337 340 339 338 339 344 345 341 338 333 328 324 322 319
312 311 308 304 300 297 308 316 321 320 308 319 325 324 325 322 316 323 337 341 340 336 340 347 348 346 345 344 346 340 339 340 340 343 344 346 345 341 336 333 327 324 322 318
309 309 306 306 303 307 312 318 321 307 310 324 328 328 323 321 324 332 338 341 341 339 344 348 344 344 347 348 342 333 335 339 344 345 344 344 342 337 334 331 326 323 320 317
308 307 307 306 303 301 318 320 314 319 325 328 330 328 326 329 335 337 339 336 341 338 345 344 343 347 348 347 342 339 337 341 343 344 342 339 335 333 330 329 324 323 320 316
306 312 311 312 311 319 321 321 325 325 326 329 331 331 331 336 338 337 334 336 337 341 341 342 347 344 341 339 341 338 337 340 340 339 336 334 331 328 329 326 323 320 318 312
312 315 313 313 319 320 321 323 325 326 327 328 333 332 330 327 330 337 334 333 335 336 335 339 342 337 336 339 341 339 337 339 336 333 331 327 325 325 326 324 322 318 314 311
314 315 314 314 318 320 320 323 324 325 326 327 331 329 329 329 332 340 335 332 332 333 336 338 337 334 335 338 338 338 336 335 333 329 325 324 321 323 322 322 319 316 316 311
315 316 313 311 319 320 320 323 326 325 325 327 328 329 334 336 338 339 333 332 332 331 333 332 336 337 336 335 334 333 333 335 330 325 322 320 319 318 317 315 314 306 305 302
Wind_Speed
3 7 11 10 4 4 6 2 3 6 0 5 13 18 6 13 14 15 16 16 16 16 13 15 16 16 16 16 15 15 11 11 9 7 7 6 7 5 5 6 6 4 3 4
3 10 5 4 5 6 4 2 3 4 8 3 4 13 4 12 16 17 17 18 18 16 14 13 13 16 18 18 16 14 13 9 9 7 5 4 4 3 4 2 4 5 5 5
7 1 7 6 7 8 4 6 4 4 6 6 4 6 2 2 10 13 15 15 17 18 18 16 14 15 16 17 17 16 14 12 9 9 6 5 2 1 3 3 4 5 5 4
5 3 6 8 8 8 12 3 4 4 4 4 3 5 6 2 7 12 16 18 17 19 17 15 14 14 16 16 14 14 13 12 9 11 10 10 5 4 2 3 3 4 5 4
5 6 9 7 5 7 5 2 4 3 3 4 4 5 3 3 9 8 17 20 20 17 17 17 16 14 14 13 13 13 13 11 12 13 11 8 5 2 3 3 5 4 4 3
3 2 3 7 6 9 5 4 2 2 1 6 2 4 4 4 6 7 4 17 19 17 17 16 14 12 12 11 12 13 14 13 11 11 11 9 8 6 5 4 4 5 5 4
2 7 3 3 5 3 5 7 6 7 6 6 3 5 9 8 10 11 13 7 17 17 16 15 14 13 13 15 14 14 14 13 11 11 10 10 7 7 7 8 6 8 5 4
3 5 9 8 11 6 9 10 7 9 8 4 3 5 6 5 6 8 9 9 8 14 14 15 14 14 15 15 15 15 16 13 11 12 11 8 8 6 6 8 7 6 5 5
5 4 2 7 5 11 7 7 3 3 2 3 2 5 13 9 13 8 11 8 9 14 15 15 14 13 14 15 16 16 16 14 12 12 11 9 8 9 8 8 6 6 5 5
5 4 1 2 5 4 6 10 6 2 5 7 5 4 9 8 14 8 10 12 10 10 12 14 13 12 11 11 12 13 13 14 12 10 11 9 10 9 9 8 7 8 7 5
7 4 3 2 7 10 5 5 2 1 2 7 9 7 7 13 14 10 9 7 8 7 10 12 11 11 11 11 12 13 13 14 13 11 11 11 9 10 10 9 7 6 5 5
6 2 7 11 2 2 2 4 9 5 6 1 5 10 4 12 13 7 10 8 2 6 11 13 14 12 11 11 11 10 9 10 11 10 12 10 10 9 9 9 8 6 5 4
10 5 4 4 5 2 6 5 4 1 1 7 9 9 3 10 14 4 9 9 4 8 10 11 13 13 10 9 10 12 12 11 9 7 5 7 9 10 10 9 7 7 6 5
6 4 5 6 2 1 6 7 8 9 4 3 8 13 11 11 14 11 9 8 5 6 11 11 10 11 12 13 14 16 16 14 14 10 7 2 4 8 9 8 8 8 7 7
5 3 3 6 8 7 8 3 8 12 4 6 4 8 12 9 9 12 10 6 7 8 9 10 12 13 14 15 15 16 12 11 8 11 10 3 5 2 8 8 8 10 9 9
1 2 2 2 4 6 7 7 8 12 6 10 9 11 10 11 10 10 8 10 10 9 9 11 13 16 16 18 17 14 10 10 4 9 7 12 8 5 9 9 10 10 11 9
3 3 3 3 3 2 6 13 11 6 6 7 8 11 6 11 10 10 6 8 7 7 11 12 13 15 16 19 17 15 14 12 10 11 9 10 10 9 9 10 10 11 10 8
2 1 2 3 2 6 2 3 4 8 9 10 12 13 12 11 10 9 2 6 8 9 12 12 13 14 15 18 15 9 10 4 11 13 12 10 11 10 11 11 10 9 9 9
1 1 3 6 7 5 8 5 5 7 7 10 13 13 14 9 7 13 5 3 9 8 10 11 13 17 17 17 12 11 11 3 8 13 14 13 13 12 11 11 10 9 10 8
4 0 4 1 8 13 9 4 3 6 6 10 14 13 10 4 7 5 5 7 11 13 13 16 17 18 18 18 18 13 12 11 12 13 11 10 12 13 12 11 11 9 8 8
3 2 7 7 7 6 3 4 2 7 5 17 10 10 7 9 5 2 2 1 4 11 16 18 18 17 19 20 19 14 13 12 11 10 11 12 11 11 12 11 10 9 8 8
4 3 4 2 5 9 3 4 4 8 9 13 9 9 8 4 3 1 3 3 4 13 17 17 16 15 15 13 8 9 13 10 11 12 13 12 10 9 9 12 10 9 8 8
4 4 1 6 4 5 3 7 11 8 11 7 6 8 7 5 6 4 4 4 6 11 13 14 14 17 11 6 8 10 12 13 14 13 13 12 11 9 10 11 11 9 7 8
5 4 4 4 0 3 10 8 5 6 8 10 9 6 3 5 4 5 3 5 6 6 8 9 12 12 10 10 10 12 14 14 15 13 12 11 11 11 10 8 8 7 7 7
2 7 4 6 12 2 5 8 8 9 10 10 6 3 4 1 1 7 6 5 3 4 3 6 9 9 12 13 12 12 14 15 13 12 11 10 9 9 9 6 6 6 6 6
6 5 4 3 3 2 7 3 7 5 9 13 8 3 4 6 8 8 6 5 4 7 8 5 7 10 12 12 13 12 12 13 14 13 11 9 9 8 7 7 7 3 2 4
Wind_Direction
43 205 213 220 193 134 138 145 321 310 282 235 244 267 241 194 200 200 195 202 212 218 222 220 217 214 211 207 208 193 194 194 186 185 203 221 234 232 239 244 248 271 234 199
163 224 204 189 179 161 171 250 284 284 311 261 340 285 298 201 209 205 203 207 212 219 214 212 209 211 211 211 210 204 205 189 200 205 208 219 213 221 252 253 223 201 196 182
208 142 166 181 185 193 201 256 280 287 310 266 313 284 281 182 216 212 215 220 215 215 223 221 212 208 209 211 205 205 206 205 202 203 191 172 177 183 193 191 201 201 187 173
215 166 186 179 197 216 246 191 260 284 315 307 344 296 301 292 242 215 214 215 217 212 218 220 216 211 209 209 209 202 193 194 198 193 193 201 199 226 150 157 133 151 169 159
184 195 197 207 210 199 249 157 289 300 279 245 189 258 288 327 308 244 213 216 213 210 210 212 212 207 209 199 196 193 179 181 188 189 195 198 211 219 153 133 138 137 144 127
234 253 225 234 191 196 135 155 91 106 177 236 103 274 246 297 277 296 209 217 211 205 206 212 213 199 198 191 184 180 175 174 179 183 193 191 196 170 157 146 147 146 130 120
234 226 228 198 190 158 187 191 216 219 213 248 110 229 271 265 266 266 286 241 216 204 205 200 199 199 193 188 184 179 182 181 182 182 183 184 185 164 160 159 154 147 144 139
218 206 192 177 219 202 196 224 229 226 225 239 145 231 257 269 282 284 269 272 219 210 209 201 196 196 196 193 189 183 185 183 182 180 179 181 167 172 164 162 154 149 150 144
179 252 203 213 167 199 156 207 286 180 107 261 250 248 276 270 272 252 254 232 218 214 206 199 193 200 198 190 191 190 186 188 183 183 172 172 170 171 168 150 166 152 149 148
187 264 199 94 170 75 241 140 174 226 196 237 199 257 257 279 283 295 255 245 230 216 202 194 190 196 195 189 191 189 192 185 177 173 175 171 166 169 174 158 167 167 157 166
162 238 151 213 202 186 160 195 93 188 264 254 256 248 233 249 267 290 278 265 265 226 184 186 182 185 180 183 181 182 181 176 166 169 163 166 166 171 163 170 169 168 156 154
186 201 235 250 125 2 301 243 195 231 195 241 294 263 245 254 274 277 281 292 245 210 177 185 189 180 178 188 175 162 162 172 165 162 165 169 160 162 164 166 166 159 137 132
174 203 225 217 167 132 235 202 214 141 196 204 251 269 217 265 273 252 262 273 257 175 169 183 187 189 172 150 142 127 110 86 82 62 134 164 152 156 169 165 158 141 137 128
162 147 239 265 243 226 193 196 197 218 192 195 237 269 266 262 273 285 250 243 259 187 174 178 167 151 146 141 118 104 100 97 80 88 71 200 191 161 160 154 150 139 123 108
218 232 219 272 252 238 251 209 189 230 192 228 309 226 262 268 282 288 276 212 208 192 162 157 146 140 136 125 117 110 106 99 140 122 131 135 308 163 137 150 136 118 113 104
278 191 217 270 345 241 235 202 200 223 228 252 266 275 274 281 281 269 238 207 209 191 152 140 144 146 141 132 116 131 125 96 55 87 135 158 158 189 150 142 125 124 114 116
298 204 216 267 345 264 235 216 203 196 219 242 238 274 294 282 282 298 247 224 209 162 162 156 157 157 157 135 151 153 161 136 171 156 180 179 145 160 146 130 128 121 122 121
207 226 259 260 220 236 260 327 259 226 248 229 260 262 270 277 305 299 258 204 189 149 160 157 151 154 150 153 163 114 347 102 162 166 196 172 157 151 141 136 124 130 128 113
266 177 236 246 230 312 263 197 183 204 260 232 240 252 266 296 291 268 148 166 162 151 149 147 142 138 147 145 133 116 94 242 196 186 183 166 158 154 146 139 142 130 128 123
115 144 241 246 259 252 266 127 125 166 259 218 220 246 265 219 244 257 137 154 156 153 145 137 137 141 132 133 144 151 142 174 189 188 168 153 154 153 149 140 140 137 133 127
191 204 240 234 257 277 17 75 206 221 329 334 299 272 233 217 304 318 124 140 139 143 142 136 142 151 151 159 161 171 149 154 166 155 140 148 149 150 142 136 139 145 141 125
220 221 213 186 235 256 75 120 257 332 311 320 325 340 313 278 258 30 57 69 116 135 141 143 150 158 151 157 159 143 116 122 133 146 140 134 137 131 140 139 139 139 143 139
225 229 303 241 252 72 358 304 295 296 301 304 326 360 11 29 5 26 68 79 98 139 150 161 157 148 148 179 155 132 123 139 138 133 133 138 138 136 133 138 146 150 158 155
213 182 233 288 306 297 330 328 325 302 293 306 278 322 313 349 39 87 65 62 76 100 151 154 156 150 131 138 142 130 141 141 134 136 137 137 136 136 140 146 158 158 168 164
10 168 199 256 280 301 110 50 23 4 341 316 292 2 319 343 135 134 104 84 114 101 99 167 162 164 138 133 127 137 139 140 136 135 131 133 135 139 142 163 166 176 184 174
192 199 203 293 356 307 317 328 1 12 1 346 314 25 32 105 128 116 94 100 100 114 111 124 149 154 130 130 123 132 137 139 141 141 147 146 142 145 160 170 162 91 23 165